"startDT [UTC]","vpos","CH4 [ppm]","stdev(CH4) [ppm]","CO2 [ppm]","stdev(CO2) [ppm]","H2O_reported [%]","stdev(H2O_reported)","CavityPressure [torr]","CavityTemp [C]","OutletValve","CH4_dry [ppm]","CO2_dry [ppm]","DasTemp [C]","EtalonTemp [C]","WarmBoxTemp [C]","MPVPosition","T_ECpre [C]","T_EC1 [C]","T_EC2 [C]","p_inlet [hPa]","p_in [hPa]","p_out [hPa]","T_inlet [C]","RH_inlet [%]","dwpt_inlet [C]","T_vent [C]","RH_vent [%]","dwpt_vent [C]","flow_vent [l min-1]","flow_inlet [l min-1]","dwpt_sample [C]","T_room [C]"
2015-01-15 00:00:00,0.0,1.95978,0.00034,405.824,0.038,0.1122,0.0015,139.999,45.000,29034.95114,1.96194,406.372,34.688,45.067,45.000,0.00,0.09,-272.68,-272.73,-10,170,-3,21.3,3.5,-24.0,21.7,3.7,-23.0,5.73,2.57,-19.3,27.7
2015-01-15 00:01:00,0.0,1.95964,0.00045,405.811,0.026,0.1124,0.0023,140.003,45.000,29034.44849,1.96181,406.360,34.684,45.067,45.000,0.00,0.09,-272.69,-272.74,-11,169,-3,21.3,3.5,-23.8,21.7,3.7,-23.0,5.73,2.57,-19.3,27.7
2015-01-15 00:02:00,0.0,1.95974,0.00032,405.810,0.042,0.1126,0.0019,139.999,45.000,29027.90094,1.96193,406.361,34.679,45.067,45.000,0.00,0.09,-272.68,-272.74,-11,169,-3,21.3,3.5,-23.9,21.7,3.7,-23.0,5.73,2.56,-19.3,27.7
2015-01-15 00:03:00,0.0,1.95935,0.00044,405.811,0.031,0.1127,0.0022,139.999,45.000,29030.12421,1.96151,406.361,34.677,45.067,45.000,0.00,0.09,-272.67,-272.73,-11,168,-3,21.3,3.5,-23.8,21.7,3.7,-23.0,5.73,2.56,-19.3,27.7
2015-01-15 00:04:00,0.0,1.95974,0.00042,405.814,0.029,0.1136,0.0014,140.000,45.000,29033.86573,1.96195,406.369,34.686,45.067,45.000,0.00,0.09,-272.68,-272.74,-10,169,-4,21.3,3.5,-23.8,21.7,3.7,-23.0,5.73,2.56,-19.3,27.7
2015-01-15 00:05:00,0.0,1.95953,0.00038,405.829,0.027,0.1129,0.0016,140.000,45.000,29031.60329,1.96173,406.381,34.688,45.067,45.000,0.00,0.09,-272.68,-272.75,-10,169,-3,21.3,3.5,-23.8,21.7,3.7,-23.0,5.73,2.56,-19.3,27.7
2015-01-15 00:06:00,0.0,1.95969,0.00025,405.837,0.039,0.1125,0.0018,139.999,45.000,29031.11317,1.96184,406.386,34.690,45.067,45.000,0.00,0.09,-272.68,-272.73,-10,169,-4,21.3,3.5,-23.8,21.7,3.7,-22.9,5.73,2.56,-19.3,27.7
2015-01-15 00:07:00,0.0,1.96018,0.00052,405.852,0.040,0.1141,0.0010,140.001,45.000,29032.60608,1.96233,406.408,34.700,45.067,45.000,0.00,0.09,-272.68,-272.74,-10,169,-4,21.3,3.6,-23.7,21.7,3.7,-22.9,5.73,2.56,-19.2,27.7
2015-01-15 00:08:00,0.0,1.96015,0.00041,405.883,0.035,0.1126,0.0023,139.999,45.000,29033.38028,1.96232,406.433,34.715,45.067,45.000,0.00,0.09,-272.68,-272.75,-10,169,-4,21.3,3.5,-23.9,21.8,3.7,-22.9,5.73,2.56,-19.3,27.8
2015-01-15 00:09:00,0.0,1.96053,0.00042,405.892,0.025,0.1117,0.0015,140.000,45.000,29032.85932,1.96271,406.439,34.706,45.067,45.000,0.00,0.09,-272.68,-272.74,-10,169,-3,21.3,3.5,-23.9,21.8,3.7,-22.9,5.73,2.56,-19.3,27.8
2015-01-15 00:10:00,0.0,1.96097,0.00036,405.898,0.052,0.1116,0.0015,140.002,45.000,29029.44218,1.96310,406.443,34.695,45.067,45.000,0.00,0.09,-272.68,-272.74,-10,169,-4,21.3,3.5,-23.9,21.8,3.7,-22.9,5.73,2.56,-19.2,27.8
2015-01-15 00:11:00,0.0,1.96110,0.00034,405.896,0.032,0.1129,0.0020,139.997,45.000,29026.22014,1.96328,406.449,34.704,45.067,45.000,0.00,0.09,-272.68,-272.75,-10,168,-4,21.3,3.5,-23.9,21.8,3.7,-22.9,5.73,2.50,-19.3,27.7
2015-01-15 00:12:00,0.0,1.96111,0.00034,405.872,0.030,0.1126,0.0021,139.999,45.000,29027.56859,1.96330,406.423,34.725,45.067,45.000,0.00,0.09,-272.68,-272.74,-10,168,-4,21.3,3.5,-23.9,21.8,3.7,-22.9,5.73,2.55,-19.3,27.7
2015-01-15 00:13:00,0.0,1.96049,0.00042,405.891,0.028,0.1122,0.0018,139.998,45.000,29026.93918,1.96267,406.440,34.708,45.067,45.000,0.00,0.09,-272.68,-272.73,-11,168,-4,21.3,3.5,-23.8,21.8,3.7,-22.9,5.73,2.56,-19.2,27.7
2015-01-15 00:14:00,0.0,1.96074,0.00044,405.867,0.029,0.1131,0.0017,140.000,45.000,29027.84763,1.96292,406.421,34.697,45.067,45.000,0.00,0.09,-272.68,-272.74,-11,168,-4,21.3,3.5,-23.8,21.8,3.7,-22.9,5.73,2.56,-19.2,27.8
2015-01-15 00:15:00,0.0,1.96027,0.00032,405.913,0.026,0.1131,0.0018,140.002,45.000,29028.45639,1.96248,406.464,34.695,45.067,45.000,0.00,0.09,-272.69,-272.75,-11,168,-4,21.3,3.5,-23.9,21.8,3.7,-22.9,5.73,2.56,-19.3,27.8
2015-01-15 00:16:00,0.0,1.96047,0.00040,405.935,0.031,0.1134,0.0016,139.999,45.000,29029.49323,1.96264,406.491,34.707,45.067,45.000,0.00,0.09,-272.68,-272.74,-11,168,-4,21.4,3.5,-23.8,21.8,3.7,-22.9,5.73,2.56,-19.2,27.8
2015-01-15 00:17:00,0.0,1.96033,0.00033,405.911,0.034,0.1135,0.0015,139.999,45.000,29028.07385,1.96254,406.466,34.719,45.067,45.000,0.00,0.09,-272.68,-272.74,-11,169,-4,21.4,3.5,-23.8,21.8,3.7,-22.9,5.73,2.56,-19.2,27.8
2015-01-15 00:18:00,0.0,1.96049,0.00037,405.869,0.034,0.1127,0.0018,139.999,45.000,29028.26917,1.96265,406.422,34.718,45.067,45.000,0.00,0.09,-272.68,-272.74,-10,168,-4,21.4,3.5,-23.8,21.8,3.7,-22.9,5.73,2.56,-19.2,27.7
2015-01-15 00:19:00,0.0,1.96023,0.00030,405.864,0.026,0.1120,0.0018,140.001,45.000,29024.54795,1.96241,406.411,34.711,45.067,45.000,0.00,0.09,-272.68,-272.74,-10,168,-4,21.4,3.5,-23.9,21.8,3.7,-22.9,5.73,2.57,-19.2,27.7
2015-01-15 00:20:00,0.0,1.96060,0.00046,405.847,0.035,0.1131,0.0016,140.001,45.000,29001.42948,1.96277,406.400,34.694,45.067,45.000,0.00,0.09,-272.68,-272.74,-10,165,-4,21.4,3.5,-23.8,21.8,3.7,-22.9,5.73,2.57,-19.2,27.7
2015-01-15 00:21:00,0.0,1.96051,0.00035,405.835,0.032,0.1129,0.0016,139.999,45.000,28978.52061,1.96271,406.388,34.686,45.067,45.000,0.00,0.09,-272.68,-272.74,-10,162,-4,21.3,3.5,-23.9,21.8,3.7,-22.9,5.73,2.61,-19.2,27.7
2015-01-15 00:22:00,0.0,1.96012,0.00056,405.860,0.025,0.1121,0.0016,140.001,45.000,28969.49107,1.96232,406.407,34.645,45.066,44.999,0.00,0.09,-272.68,-272.74,-11,161,-4,21.3,3.5,-23.8,21.8,3.7,-22.9,5.73,2.65,-19.2,27.7
2015-01-15 00:23:00,0.0,1.96059,0.00036,405.882,0.025,0.1128,0.0014,140.001,44.999,28978.95356,1.96272,406.435,34.614,45.066,44.999,0.00,0.09,-272.68,-272.74,-11,162,-4,21.3,3.5,-23.8,21.7,3.7,-23.0,5.73,2.65,-19.2,27.7
2015-01-15 00:24:00,0.0,1.96038,0.00038,405.884,0.030,0.1139,0.0018,139.999,44.999,28995.65944,1.96259,406.441,34.556,45.065,44.998,0.00,0.09,-272.69,-272.74,-11,165,-4,21.3,3.5,-23.8,21.7,3.7,-22.9,5.73,2.60,-19.2,27.7
2015-01-15 00:25:00,0.0,1.96036,0.00035,405.866,0.027,0.1135,0.0019,139.997,44.999,28978.90910,1.96254,406.420,34.510,45.066,44.999,0.00,0.09,-272.69,-272.74,-11,162,-4,21.3,3.6,-23.7,21.7,3.7,-23.0,5.73,2.57,-19.2,27.6
2015-01-15 00:26:00,0.0,1.95988,0.00028,405.891,0.039,0.1140,0.0020,139.999,44.999,28964.72859,1.96210,406.449,34.467,45.066,44.999,0.00,0.09,-272.68,-272.74,-10,161,-3,21.3,3.6,-23.7,21.7,3.7,-22.9,5.73,2.52,-19.2,27.6
2015-01-15 00:27:00,0.0,1.96030,0.00052,405.921,0.031,0.1133,0.0015,139.998,44.999,28965.16099,1.96248,406.474,34.431,45.066,44.999,0.00,0.09,-272.67,-272.74,-10,161,-4,21.2,3.6,-23.8,21.7,3.7,-23.0,5.73,2.51,-19.2,27.6
2015-01-15 00:28:00,0.0,1.96040,0.00031,405.948,0.034,0.1141,0.0019,140.000,44.999,28974.60335,1.96261,406.507,34.386,45.066,44.999,0.00,0.09,-272.68,-272.75,-11,163,-4,21.2,3.6,-23.7,21.7,3.7,-23.0,5.73,2.54,-19.2,27.6
2015-01-15 00:29:00,0.0,1.96067,0.00037,405.962,0.039,0.1148,0.0023,139.997,44.999,28976.67200,1.96287,406.523,34.369,45.066,44.999,0.00,0.09,-272.68,-272.74,-11,163,-3,21.2,3.6,-23.6,21.7,3.7,-23.0,5.73,2.60,-19.2,27.6
2015-01-15 00:30:00,0.0,1.96056,0.00036,405.984,0.026,0.1143,0.0022,139.999,44.999,28996.35724,1.96277,406.543,34.315,45.066,44.999,0.00,0.09,-272.68,-272.74,-11,165,-3,21.2,3.6,-23.7,21.7,3.7,-23.0,5.73,2.62,-19.2,27.6
2015-01-15 00:31:00,0.0,1.96044,0.00033,405.988,0.037,0.1136,0.0017,139.996,44.999,28979.36546,1.96263,406.543,34.274,45.067,45.000,0.00,0.09,-272.68,-272.74,-10,163,-4,21.2,3.6,-23.7,21.7,3.7,-23.0,5.73,2.65,-19.2,27.5
2015-01-15 00:32:00,0.0,1.96045,0.00036,405.971,0.026,0.1131,0.0017,140.002,45.000,28988.35188,1.96265,406.525,34.245,45.067,45.000,0.00,0.09,-272.69,-272.74,-10,165,-3,21.3,3.6,-23.8,21.7,3.7,-22.9,5.73,2.63,-19.2,27.5
2015-01-15 00:33:00,0.0,1.96049,0.00035,405.950,0.033,0.1139,0.0019,139.996,45.000,28989.53785,1.96269,406.506,34.228,45.067,45.000,0.00,0.09,-272.68,-272.74,-10,165,-4,21.2,3.6,-23.7,21.7,3.7,-23.0,5.73,2.60,-19.2,27.6
2015-01-15 00:34:00,0.0,1.96049,0.00031,405.965,0.030,0.1133,0.0023,140.003,45.000,28993.35691,1.96267,406.520,34.209,45.068,45.001,0.00,0.09,-272.68,-272.74,-11,165,-4,21.2,3.6,-23.7,21.7,3.7,-23.0,5.73,2.58,-19.2,27.5
2015-01-15 00:35:00,0.0,1.96052,0.00043,405.950,0.035,0.1136,0.0017,139.999,45.000,28994.76147,1.96270,406.504,34.197,45.068,45.001,0.00,0.09,-272.69,-272.74,-11,165,-3,21.2,3.6,-23.8,21.7,3.7,-23.0,5.73,2.55,-19.2,27.5
2015-01-15 00:36:00,0.0,1.96038,0.00035,405.950,0.036,0.1149,0.0018,140.000,45.000,28992.02787,1.96260,406.512,34.200,45.068,45.000,0.00,0.09,-272.68,-272.74,-11,165,-4,21.2,3.6,-23.7,21.7,3.7,-23.0,5.73,2.53,-19.2,27.5
2015-01-15 00:37:00,0.0,1.96044,0.00037,405.950,0.026,0.1146,0.0015,139.999,45.000,28992.26264,1.96268,406.511,34.194,45.067,45.000,0.00,0.09,-272.68,-272.74,-11,165,-4,21.2,3.6,-23.7,21.7,3.7,-23.0,5.73,2.53,-19.2,27.5
2015-01-15 00:38:00,0.0,1.96031,0.00025,405.925,0.034,0.1147,0.0017,140.000,45.000,28972.59274,1.96253,406.485,34.185,45.067,45.000,0.00,0.09,-272.68,-272.75,-10,163,-4,21.2,3.6,-23.7,21.7,3.7,-23.0,5.73,2.55,-19.2,27.5
2015-01-15 00:39:00,0.0,1.96039,0.00036,405.964,0.041,0.1170,0.0015,140.000,45.000,28959.78682,1.96265,406.537,34.140,45.067,45.000,0.00,0.09,-272.68,-272.75,-10,161,-3,21.2,3.7,-23.5,21.6,3.7,-23.0,5.73,2.62,-19.2,27.4
2015-01-15 00:40:00,0.0,1.96056,0.00044,406.007,0.033,0.1153,0.0017,140.003,45.000,28981.73337,1.96280,406.570,34.123,45.067,44.999,0.00,0.09,-272.68,-272.74,-11,164,-3,21.2,3.6,-23.5,21.6,3.7,-22.9,5.73,2.64,-19.2,27.4
2015-01-15 00:41:00,0.0,1.96034,0.00031,406.048,0.036,0.1156,0.0024,140.002,44.999,29004.09928,1.96257,406.613,34.090,45.066,44.999,0.00,0.09,-272.69,-272.74,-11,168,-3,21.2,3.6,-23.6,21.6,3.7,-23.0,5.73,2.62,-19.2,27.4
2015-01-15 00:42:00,0.0,1.96050,0.00025,406.036,0.029,0.1149,0.0022,140.002,45.000,29008.91609,1.96271,406.599,34.064,45.067,45.000,0.00,0.09,-272.69,-272.74,-11,168,-4,21.2,3.6,-23.6,21.6,3.7,-22.9,5.73,2.61,-19.2,27.4
2015-01-15 00:43:00,0.0,1.96003,0.00045,406.016,0.037,0.1158,0.0022,140.001,45.000,29010.41994,1.96229,406.583,34.068,45.067,45.000,0.00,0.09,-272.68,-272.74,-11,168,-3,21.2,3.6,-23.6,21.6,3.7,-23.0,5.73,2.59,-19.2,27.4
2015-01-15 00:44:00,0.0,1.96018,0.00043,405.975,0.036,0.1169,0.0019,140.002,45.000,29010.11255,1.96241,406.548,34.112,45.068,45.001,0.00,0.09,-272.68,-272.74,-10,167,-3,21.2,3.7,-23.5,21.6,3.8,-22.9,5.73,2.58,-19.2,27.4
2015-01-15 00:45:00,0.0,1.96045,0.00032,405.974,0.041,0.1145,0.0016,139.999,45.000,29011.28698,1.96266,406.534,34.125,45.068,45.001,0.00,0.09,-272.69,-272.74,-10,168,-3,21.2,3.6,-23.6,21.6,3.7,-23.0,5.73,2.56,-19.3,27.4
2015-01-15 00:46:00,0.0,1.96017,0.00035,405.965,0.029,0.1165,0.0019,140.001,45.000,29015.47250,1.96241,406.534,34.151,45.068,45.001,0.00,0.09,-272.68,-272.74,-10,168,-3,21.1,3.7,-23.5,21.6,3.7,-22.9,5.73,2.55,-19.2,27.4
2015-01-15 00:47:00,0.0,1.96029,0.00043,405.966,0.041,0.1181,0.0013,140.000,45.000,29016.14846,1.96260,406.545,34.206,45.068,45.001,0.00,0.09,-272.68,-272.74,-10,169,-3,21.2,3.7,-23.3,21.6,3.7,-23.0,5.73,2.54,-19.2,27.4
2015-01-15 00:48:00,0.0,1.95961,0.00027,405.930,0.025,0.1189,0.0019,140.000,45.000,29011.35204,1.96193,406.512,34.253,45.067,45.000,0.00,0.09,-272.68,-272.75,-11,168,-3,21.2,3.7,-23.3,21.6,3.8,-22.9,5.73,2.53,-19.2,27.4
2015-01-15 00:49:00,0.0,1.95965,0.00033,405.946,0.036,0.1189,0.0016,140.000,45.001,29009.48881,1.96193,406.526,34.310,45.067,45.000,0.00,0.09,-272.68,-272.74,-11,168,-3,21.2,3.7,-23.3,21.6,3.8,-22.9,5.73,2.53,-19.2,27.4
2015-01-15 00:50:00,0.0,1.95968,0.00034,405.928,0.031,0.1199,0.0016,140.000,45.001,29010.47159,1.96198,406.513,34.346,45.067,45.000,0.00,0.09,-272.68,-272.74,-11,168,-3,21.2,3.7,-23.2,21.6,3.7,-23.0,5.73,2.54,-19.2,27.4
2015-01-15 00:51:00,0.0,1.95974,0.00030,405.928,0.031,0.1187,0.0020,140.001,45.000,29015.11376,1.96205,406.510,34.392,45.067,45.000,0.00,0.09,-272.68,-272.75,-11,168,-3,21.2,3.7,-23.3,21.6,3.7,-23.0,5.73,2.56,-19.2,27.4
2015-01-15 00:52:00,0.0,1.96016,0.00038,405.934,0.030,0.1167,0.0020,140.000,45.000,29016.47637,1.96239,406.504,34.413,45.067,45.000,0.00,0.09,-272.68,-272.74,-10,169,-3,21.2,3.7,-23.5,21.6,3.7,-23.0,5.73,2.57,-19.2,27.4
2015-01-15 00:53:00,0.0,1.95996,0.00030,405.936,0.029,0.1167,0.0017,140.000,45.000,29020.55081,1.96223,406.507,34.427,45.067,45.000,0.00,0.09,-272.68,-272.73,-10,169,-3,21.2,3.7,-23.5,21.6,3.7,-22.9,5.73,2.59,-19.2,27.4
2015-01-15 00:54:00,0.0,1.95975,0.00032,405.928,0.032,0.1160,0.0019,140.000,45.000,29020.88213,1.96199,406.495,34.438,45.067,45.000,0.00,0.09,-272.68,-272.74,-10,169,-3,21.2,3.7,-23.5,21.6,3.7,-23.0,5.73,2.60,-19.3,27.4
2015-01-15 00:55:00,0.0,1.95981,0.00042,405.941,0.036,0.1162,0.0015,140.001,45.000,29019.34151,1.96204,406.509,34.464,45.067,45.000,0.00,0.09,-272.68,-272.74,-10,169,-3,21.2,3.7,-23.5,21.6,3.7,-22.9,5.73,2.61,-19.2,27.4
2015-01-15 00:56:00,0.0,1.96014,0.00030,405.977,0.025,0.1166,0.0021,140.001,45.000,29015.38454,1.96240,406.547,34.488,45.067,45.000,0.00,0.09,-272.68,-272.74,-11,168,-3,21.2,3.6,-23.5,21.6,3.7,-22.9,5.73,2.62,-19.3,27.4
2015-01-15 00:57:00,0.0,1.96030,0.00035,405.988,0.024,0.1158,0.0016,139.998,45.000,29013.05889,1.96253,406.554,34.498,45.067,45.000,0.00,0.09,-272.68,-272.74,-11,168,-3,21.2,3.6,-23.6,21.6,3.7,-23.0,5.73,2.62,-19.2,27.4
2015-01-15 00:58:00,0.0,1.96048,0.00044,406.003,0.030,0.1156,0.0018,139.999,45.000,29017.98261,1.96270,406.569,34.500,45.067,45.000,0.00,0.09,-272.69,-272.74,-11,168,-3,21.2,3.6,-23.6,21.6,3.7,-22.9,5.73,2.60,-19.2,27.4
2015-01-15 00:59:00,0.0,1.96065,0.00036,406.007,0.022,0.1140,0.0017,139.995,45.000,29014.63393,1.96286,406.564,34.505,45.068,45.001,0.00,0.09,-272.68,-272.74,-11,168,-3,21.2,3.6,-23.7,21.6,3.7,-22.9,5.73,2.59,-19.2,27.5
2015-01-15 01:00:00,0.0,1.96066,0.00045,406.011,0.034,0.1146,0.0017,139.999,45.000,29013.88120,1.96287,406.571,34.543,45.068,45.001,0.00,0.09,-272.68,-272.73,-10,168,-3,21.2,3.6,-23.7,21.6,3.7,-23.0,5.73,2.57,-19.2,27.5
2015-01-15 01:01:00,0.0,1.96049,0.00037,406.000,0.042,0.1151,0.0017,139.998,45.000,29013.63275,1.96272,406.564,34.562,45.067,45.000,0.00,0.09,-272.69,-272.74,-10,168,-3,21.2,3.6,-23.6,21.6,3.7,-23.0,5.73,2.54,-19.2,27.5
2015-01-15 01:02:00,0.0,1.96041,0.00046,405.987,0.030,0.1152,0.0018,139.998,45.000,29016.82219,1.96266,406.551,34.564,45.067,45.000,0.00,0.09,-272.68,-272.75,-10,168,-3,21.3,3.6,-23.6,21.6,3.7,-22.9,5.73,2.53,-19.2,27.5
2015-01-15 01:03:00,0.0,1.95973,0.00041,405.948,0.039,0.1159,0.0015,139.999,45.000,29018.85353,1.96197,406.515,34.599,45.067,45.000,0.00,0.09,-272.68,-272.74,-10,168,-3,21.3,3.6,-23.5,21.6,3.7,-22.9,5.73,2.53,-19.2,27.5
2015-01-15 01:04:00,0.0,1.95981,0.00041,405.953,0.039,0.1169,0.0016,140.000,45.000,29024.24001,1.96208,406.527,34.622,45.067,45.000,0.00,0.09,-272.68,-272.74,-11,169,-3,21.2,3.6,-23.6,21.6,3.7,-22.9,5.73,2.54,-19.2,27.5
2015-01-15 01:05:00,0.0,1.95946,0.00027,405.929,0.017,0.1170,0.0016,139.999,45.000,29019.02851,1.96173,406.501,34.625,45.067,45.000,0.00,0.09,-272.68,-272.74,-11,168,-3,21.3,3.6,-23.5,21.6,3.7,-22.9,5.73,2.54,-19.2,27.5
2015-01-15 01:06:00,0.0,1.95970,0.00038,405.916,0.035,0.1164,0.0015,140.002,45.000,29015.28173,1.96190,406.485,34.625,45.067,45.000,0.00,0.09,-272.68,-272.74,-11,167,-3,21.3,3.7,-23.5,21.6,3.7,-22.9,5.73,2.56,-19.2,27.5
2015-01-15 01:07:00,0.0,1.95959,0.00045,405.909,0.030,0.1166,0.0017,139.999,45.000,29019.58444,1.96187,406.480,34.625,45.067,45.000,0.00,0.09,-272.68,-272.74,-11,168,-3,21.3,3.7,-23.5,21.7,3.7,-22.9,5.73,2.58,-19.2,27.5
2015-01-15 01:08:00,0.0,1.95906,0.00040,405.894,0.032,0.1174,0.0018,140.001,45.000,29024.47531,1.96134,406.468,34.626,45.067,45.000,0.00,0.09,-272.69,-272.74,-10,168,-3,21.3,3.7,-23.4,21.6,3.7,-22.9,5.73,2.60,-19.2,27.5
2015-01-15 01:09:00,0.0,1.95954,0.00036,405.891,0.032,0.1174,0.0014,139.998,45.000,29025.25873,1.96184,406.466,34.628,45.067,45.000,0.00,0.09,-272.69,-272.75,-10,169,-3,21.3,3.7,-23.4,21.7,3.7,-22.9,5.73,2.60,-19.2,27.5
2015-01-15 01:10:00,0.0,1.95920,0.00029,405.877,0.034,0.1175,0.0018,140.000,45.000,29021.15133,1.96147,406.451,34.644,45.067,45.000,0.00,0.09,-272.68,-272.74,-10,168,-3,21.3,3.7,-23.5,21.7,3.7,-22.9,5.73,2.61,-19.2,27.6
2015-01-15 01:11:00,0.0,1.95906,0.00045,405.895,0.027,0.1176,0.0011,139.999,45.000,29020.82386,1.96136,406.469,34.679,45.067,45.000,0.00,0.09,-272.68,-272.74,-11,169,-3,21.3,3.7,-23.4,21.7,3.7,-22.9,5.73,2.61,-19.2,27.6
2015-01-15 01:12:00,0.0,1.95878,0.00042,405.885,0.039,0.1176,0.0009,140.001,45.000,29022.11223,1.96103,406.462,34.685,45.067,45.000,0.00,0.09,-272.69,-272.74,-11,168,-3,21.3,3.7,-23.4,21.7,3.7,-22.9,5.73,2.60,-19.2,27.5
2015-01-15 01:13:00,0.0,1.95904,0.00046,405.869,0.033,0.1185,0.0019,140.000,45.000,29019.31453,1.96130,406.448,34.688,45.067,45.000,0.00,0.09,-272.68,-272.74,-11,169,-3,21.3,3.7,-23.4,21.7,3.7,-22.9,5.73,2.59,-19.2,27.6
2015-01-15 01:14:00,0.0,1.95929,0.00042,405.880,0.042,0.1186,0.0016,140.000,45.000,29014.41578,1.96159,406.459,34.687,45.067,45.000,0.00,0.09,-272.68,-272.74,-11,167,-3,21.3,3.7,-23.4,21.7,3.7,-22.9,5.73,2.57,-19.2,27.6
2015-01-15 01:15:00,0.0,1.95897,0.00039,405.859,0.028,0.1176,0.0014,140.000,45.000,29014.76181,1.96125,406.435,34.688,45.067,45.000,0.00,0.09,-272.68,-272.74,-11,168,-3,21.3,3.7,-23.4,21.7,3.7,-22.9,5.73,2.56,-19.2,27.6
2015-01-15 01:16:00,0.0,1.95888,0.00031,405.859,0.032,0.1174,0.0022,140.001,45.000,29015.99713,1.96116,406.433,34.690,45.067,45.000,0.00,0.09,-272.68,-272.74,-11,168,-3,21.3,3.7,-23.4,21.7,3.7,-22.9,5.73,2.54,-19.2,27.6
2015-01-15 01:17:00,0.0,1.95906,0.00044,405.854,0.036,0.1178,0.0014,139.998,45.000,29012.98490,1.96133,406.431,34.718,45.067,45.000,0.00,0.09,-272.68,-272.74,-10,168,-4,21.3,3.7,-23.4,21.7,3.7,-22.9,5.73,2.53,-19.2,27.6
2015-01-15 01:18:00,0.0,1.95909,0.00037,405.852,0.027,0.1171,0.0012,139.999,45.000,29011.73606,1.96137,406.425,34.741,45.067,45.000,0.00,0.09,-272.68,-272.74,-10,167,-3,21.3,3.7,-23.4,21.7,3.7,-22.9,5.73,2.52,-19.2,27.6
2015-01-15 01:19:00,0.0,1.95902,0.00041,405.845,0.032,0.1179,0.0016,140.000,45.000,29010.60557,1.96132,406.423,34.749,45.067,45.000,0.00,0.09,-272.69,-272.74,-11,167,-3,21.3,3.7,-23.4,21.7,3.8,-22.9,5.73,2.53,-19.2,27.6
2015-01-15 01:20:00,0.0,1.95844,0.00041,405.837,0.029,0.1186,0.0015,140.000,45.000,29008.98554,1.96071,406.415,34.751,45.067,45.000,0.00,0.09,-272.67,-272.74,-11,168,-3,21.3,3.7,-23.3,21.7,3.7,-22.9,5.73,2.55,-19.2,27.6
2015-01-15 01:21:00,0.0,1.95799,0.00040,405.775,0.029,0.1193,0.0017,140.001,45.000,29012.34551,1.96028,406.358,34.750,45.067,45.000,0.00,0.09,-272.68,-272.74,-11,167,-3,21.3,3.7,-23.3,21.7,3.7,-22.9,5.73,2.57,-19.2,27.6
2015-01-15 01:22:00,0.0,1.95866,0.00036,405.796,0.027,0.1175,0.0017,140.000,45.000,29013.80798,1.96093,406.372,34.750,45.067,45.000,0.00,0.09,-272.68,-272.74,-11,168,-3,21.3,3.7,-23.3,21.7,3.7,-22.9,5.73,2.59,-19.2,27.6
2015-01-15 01:23:00,0.0,1.95866,0.00032,405.810,0.029,0.1170,0.0021,139.999,45.000,29012.69385,1.96094,406.381,34.750,45.067,45.000,0.00,0.09,-272.68,-272.74,-11,167,-3,21.3,3.7,-23.4,21.7,3.7,-22.9,5.73,2.61,-19.2,27.6
2015-01-15 01:24:00,0.0,1.95866,0.00036,405.783,0.032,0.1169,0.0011,140.000,45.000,29012.23888,1.96090,406.355,34.750,45.067,45.000,0.00,0.09,-272.67,-272.73,-10,167,-3,21.2,3.7,-23.5,21.7,3.8,-22.8,5.73,2.62,-19.2,27.6
2015-01-15 01:25:00,0.0,1.95842,0.00039,405.767,0.034,0.1174,0.0020,139.998,45.000,29014.24934,1.96071,406.341,34.751,45.067,45.000,0.00,0.09,-272.68,-272.74,-10,167,-3,21.3,3.7,-23.4,21.7,3.8,-22.8,5.73,2.62,-19.2,27.6
2015-01-15 01:26:00,0.0,1.95842,0.00034,405.778,0.030,0.1179,0.0020,140.000,45.000,29015.38600,1.96069,406.355,34.751,45.067,45.000,0.00,0.09,-272.69,-272.74,-10,168,-3,21.3,3.7,-23.4,21.7,3.8,-22.8,5.73,2.60,-19.2,27.6
2015-01-15 01:27:00,0.0,1.95832,0.00040,405.763,0.032,0.1177,0.0019,139.997,45.000,29017.52469,1.96061,406.340,34.751,45.067,45.000,0.00,0.09,-272.68,-272.74,-11,168,-3,21.3,3.7,-23.4,21.7,3.8,-22.8,5.73,2.59,-19.2,27.6
2015-01-15 01:28:00,0.0,1.95823,0.00039,405.749,0.019,0.1174,0.0019,139.997,45.000,29015.11387,1.96047,406.323,34.754,45.067,45.000,0.00,0.09,-272.69,-272.74,-11,167,-3,21.3,3.6,-23.5,21.7,3.8,-22.8,5.73,2.57,-19.2,27.6
2015-01-15 01:29:00,0.0,1.95835,0.00044,405.771,0.037,0.1168,0.0014,140.001,45.000,29014.07764,1.96062,406.341,34.749,45.067,45.000,0.00,0.09,-272.69,-272.74,-11,167,-3,21.3,3.6,-23.5,21.7,3.8,-22.8,5.73,2.55,-19.2,27.7
2015-01-15 01:30:00,0.0,1.95842,0.00031,405.782,0.032,0.1171,0.0016,140.002,45.000,29016.16399,1.96066,406.354,34.748,45.067,45.000,0.00,0.09,-272.68,-272.74,-11,167,-3,21.3,3.6,-23.5,21.7,3.8,-22.8,5.73,2.54,-19.2,27.7
2015-01-15 01:31:00,0.0,1.95846,0.00029,405.778,0.034,0.1164,0.0019,140.000,45.000,29017.66452,1.96075,406.349,34.747,45.067,45.000,0.00,0.09,-272.68,-272.74,-10,168,-3,21.3,3.6,-23.5,21.7,3.8,-22.8,5.73,2.53,-19.2,27.6
2015-01-15 01:32:00,0.0,1.95764,0.00045,405.721,0.042,0.1178,0.0017,139.999,45.000,29021.16680,1.95991,406.296,34.740,45.067,45.000,0.00,0.09,-272.69,-272.74,-10,168,-3,21.3,3.7,-23.4,21.7,3.8,-22.8,5.73,2.54,-19.2,27.7
2015-01-15 01:33:00,0.0,1.95789,0.00034,405.736,0.032,0.1168,0.0020,139.999,45.000,29016.42544,1.96012,406.306,34.733,45.067,45.000,0.00,0.09,-272.68,-272.74,-10,168,-3,21.3,3.6,-23.5,21.7,3.8,-22.8,5.73,2.53,-19.2,27.7
2015-01-15 01:34:00,0.0,1.95779,0.00049,405.727,0.030,0.1167,0.0015,139.998,45.000,29017.44838,1.96011,406.299,34.736,45.067,45.000,0.00,0.09,-272.67,-272.74,-10,168,-3,21.3,3.6,-23.5,21.7,3.8,-22.8,5.73,2.55,-19.2,27.7
2015-01-15 01:35:00,0.0,1.95714,0.00038,405.685,0.022,0.1185,0.0016,139.998,45.000,29015.39721,1.95940,406.265,34.748,45.067,45.000,0.00,0.09,-272.68,-272.75,-10,167,-4,21.3,3.7,-23.4,21.7,3.8,-22.8,5.73,2.56,-19.2,27.7
2015-01-15 01:36:00,0.0,1.95797,0.00054,405.687,0.023,0.1189,0.0012,140.000,45.000,29016.48027,1.96023,406.267,34.750,45.067,45.000,0.00,0.09,-272.68,-272.74,-11,168,-3,21.4,3.7,-23.3,21.7,3.8,-22.8,5.73,2.58,-19.2,27.7
2015-01-15 01:37:00,0.0,1.95786,0.00040,405.675,0.033,0.1181,0.0013,140.000,45.000,29020.67968,1.96018,406.253,34.749,45.067,45.000,0.00,0.09,-272.68,-272.74,-11,168,-3,21.3,3.7,-23.3,21.7,3.8,-22.8,5.73,2.59,-19.2,27.7
2015-01-15 01:38:00,0.0,1.95786,0.00038,405.687,0.035,0.1196,0.0020,140.001,45.000,29021.28405,1.96016,406.271,34.750,45.067,45.000,0.00,0.09,-272.68,-272.74,-11,168,-4,21.3,3.7,-23.2,21.8,3.8,-22.8,5.73,2.60,-19.2,27.7
2015-01-15 01:39:00,0.0,1.95705,0.00050,405.673,0.042,0.1189,0.0019,139.999,45.000,29019.22404,1.95939,406.257,34.750,45.067,45.000,0.00,0.09,-272.68,-272.75,-10,167,-3,21.3,3.7,-23.3,21.8,3.8,-22.8,5.73,2.60,-19.2,27.7
2015-01-15 01:40:00,0.0,1.95604,0.00035,405.607,0.035,0.1220,0.0019,140.000,45.000,29020.38499,1.95840,406.201,34.751,45.067,45.000,0.00,0.09,-272.68,-272.74,-10,168,-4,21.4,3.8,-23.0,21.8,3.8,-22.8,5.73,2.60,-19.2,27.7
2015-01-15 01:41:00,0.0,1.95600,0.00041,405.585,0.029,0.1226,0.0017,140.002,45.000,29022.28935,1.95835,406.185,34.757,45.067,45.000,0.00,0.09,-272.68,-272.73,-10,168,-4,21.4,3.8,-23.0,21.8,3.8,-22.8,5.73,2.60,-19.2,27.7
2015-01-15 01:42:00,0.0,1.95610,0.00038,405.580,0.024,0.1220,0.0019,139.999,45.000,29015.37586,1.95845,406.177,34.754,45.067,45.000,0.00,0.09,-272.69,-272.74,-10,168,-4,21.4,3.8,-23.0,21.8,3.8,-22.8,5.73,2.60,-19.2,27.7
2015-01-15 01:43:00,0.0,1.95617,0.00042,405.569,0.038,0.1219,0.0015,140.001,45.000,29020.09090,1.95854,406.165,34.790,45.067,45.000,0.00,0.09,-272.69,-272.74,-10,168,-4,21.4,3.8,-23.0,21.8,3.8,-22.7,5.73,2.59,-19.2,27.7
2015-01-15 01:44:00,0.0,1.95577,0.00040,405.541,0.029,0.1243,0.0021,140.002,45.000,29018.25400,1.95814,406.149,34.797,45.067,45.000,0.00,0.09,-272.68,-272.74,-10,168,-4,21.4,3.8,-22.9,21.8,3.8,-22.7,5.73,2.58,-19.1,27.7
2015-01-15 01:45:00,0.0,1.95676,0.00049,405.600,0.046,0.1224,0.0017,139.999,45.000,29014.24788,1.95909,406.199,34.800,45.067,45.000,0.00,0.09,-272.68,-272.74,-11,167,-4,21.4,3.8,-23.0,21.8,3.8,-22.7,5.73,2.58,-19.1,27.7